User: anonymous   Login
Location: Unspecified
(0.0000°N, 0.0000°E)
Time: 17:11:10
(UTC+00:00)
Language:

CUTE 1.7 + AOD 2 - Orbit

View from above orbital plane
View from above orbital plane
View from above satellite
View from above satellite

Ground track
Ground track

The orbit data is extracted from the following two-line orbital elements,

1 32785U 08021C   20269.76363759 +.00000263 +00000-0 +33919-4 0  9991
2 32785 097.5821 253.4134 0013567 154.4218 205.7674 14.88518210672798
Epoch (UTC): 25 September 2020 18:19:38
Eccentricity: 0.0013567
inclination: 97.5821°
perigee height: 593 km
apogee height: 612 km
right ascension of ascending node: 253.4134°
argument of perigee: 154.4218°
revolutions per day: 14.88518210
mean anomaly at epoch: 205.7674°
orbit number at epoch: 67279

The dashed part of the orbit path shows where the satellite is in the earth's shadow,  

DLR